Amateur Radio Satellites - All Passes

Search period start: 19 May 2013 01:20
Search period end: 20 May 2013 01:20
Location: Arrakis Observatory, 44.1122°N, 95.7153°W

Satellite Date Start Highest point End Downlink Frequencies (MHz)
Time Altitude Azimuth
RS-15 19 May 01:42:04 01:53:04 54° 43° (NE) 02:03:40 29.354 - 29.394 USB, Beacon 29.352 USB
KITSAT 1 19 May 01:45:17 01:53:09 54° 311° (NW) 02:01:06 435.175 FM
Oscar 19 19 May 01:51:44 01:53:03 11° 87° (E) 01:54:22 437.125 CW, 437.150 USB
MaSat-1 19 May 02:06:57 02:11:58 21° 104° (ESE) 02:16:29 437.345 MHz
AO-27 19 May 02:27:10 02:31:08 22° 93° (E) 02:35:05 436.795 MHz FM
Oscar 16 19 May 02:27:43 02:32:14 29° 95° (E) 02:36:41 437.025 USB, Beacon 2401.1428
ITAMSAT 1 19 May 02:34:42 02:38:57 25° 94° (E) 02:43:09 435.822 SSB
Uribyol 2 19 May 03:16:10 03:21:22 60° 101° (ESE) 03:26:31 436.500 FM
Oscar 19 19 May 03:27:57 03:33:10 87° 103° (ESE) 03:38:20 437.125 CW, 437.150 USB
Oscar 10/S400 19 May 03:40:16 05:17:18 13° 75° (ENE) 06:27:47 145.825 - 145.975 CW/USB, Beacon 145.810 USB
KITSAT 1 19 May 03:44:56 03:50:37 20° 337° (NNW) 03:56:19 435.175 FM
MaSat-1 19 May 03:46:38 03:53:51 80° 297° (WNW) 03:59:46 437.345 MHz
Uosat F 19 May 03:54:18 03:57:59 20° 92° (E) 04:01:39 435.120 FM
RS-15 19 May 03:54:54 04:05:23 51° 248° (WSW) 04:15:38 29.354 - 29.394 USB, Beacon 29.352 USB
ISS 19 May 03:57:05 03:58:34 12° 131° (SE) 04:00:02 145.800 FM
AO-Echo 19 May 04:04:21 04:09:00 57° 101° (E) 04:13:43 ?
AO-27 19 May 04:05:54 04:10:57 51° 290° (WNW) 04:16:00 436.795 MHz FM
Oscar 16 19 May 04:06:54 04:11:39 37° 292° (WNW) 04:16:22 437.025 USB, Beacon 2401.1428
Gurwin Techsat 1B 19 May 04:07:24 04:11:36 23° 93° (E) 04:15:45 435.225 FM
ITAMSAT 1 19 May 04:13:41 04:18:39 45° 291° (WNW) 04:23:35 435.822 SSB
AO-7 19 May 04:28:40 04:29:40 10° 83° (E) 04:30:40 29.400 - 29.500 MHz
Uribyol 2 19 May 04:56:41 05:00:24 20° 299° (WNW) 05:04:07 436.500 FM
Oscar 19 19 May 05:09:11 05:11:47 14° 302° (WNW) 05:14:24 437.125 CW, 437.150 USB
TMSAT-1 19 May 05:27:10 05:32:31 80° 103° (ESE) 05:37:49 436.925 FM
ISS 19 May 05:31:29 05:34:49 88° 148° (SSE) 05:38:10 145.800 FM
MaSat-1 19 May 05:32:13 05:36:41 19° 313° (NW) 05:40:37 437.345 MHz
Uosat F 19 May 05:32:13 05:37:05 51° 290° (WNW) 05:41:56 435.120 FM
STRAND 1 19 May 05:42:38 05:46:27 22° 62° (ENE) 05:50:17 ?
AO-Echo 19 May 05:44:17 05:47:25 18° 298° (WNW) 05:50:33 ?
KITSAT 1 19 May 05:45:21 05:49:49 15° 7° (N) 05:54:17 435.175 FM
Gurwin Techsat 1B 19 May 05:46:43 05:51:50 49° 290° (WNW) 05:56:55 435.225 FM
AO-7 19 May 06:15:55 06:24:11 60° 103° (ESE) 06:32:25 29.400 - 29.500 MHz
Saudisat 1A 19 May 06:55:15 06:59:17 32° 115° (ESE) 07:03:22 436.775 MHz
TMSAT-1 19 May 07:08:41 07:11:47 16° 301° (WNW) 07:14:54 436.925 FM
ISS 19 May 07:08:57 07:11:51 27° 347° (NNW) 07:14:47 145.800 FM
STRAND 1 19 May 07:20:21 07:25:18 52° 260° (W) 07:30:18 ?
KITSAT 1 19 May 07:41:24 07:48:24 30° 36° (NE) 07:55:22 435.175 FM
JAS-1B 19 May 07:48:45 07:51:33 13° 85° (E) 07:54:15 435.800 - 435.900 CW/SSB
Hamsat 19 May 08:01:04 08:05:07 37° 97° (E) 08:09:10 145.90 MHz
SO-67 19 May 08:01:32 08:01:59 10° 89° (E) 08:02:26 435.3500 MHz FM
AO-7 19 May 08:09:16 08:16:36 36° 303° (WNW) 08:23:56 29.400 - 29.500 MHz
PCSat 19 May 08:33:21 08:38:22 40° 112° (ESE) 08:43:25 145.825 MHz
Saudisat 1A 19 May 08:34:42 08:38:56 36° 314° (NW) 08:43:12 436.775 MHz
ISS 19 May 08:46:32 08:49:19 23° 7° (N) 08:52:06 145.800 FM
Sapphire 19 May 09:05:40 09:11:02 71° 118° (ESE) 09:16:27 437.095 MHz 1200 baud AX-25 AFSK
SO-50 19 May 09:16:43 09:19:35 16° 110° (ESE) 09:22:27 436.795 FM
SO-67 19 May 09:32:16 09:35:47 53° 286° (WNW) 09:39:16 435.3500 MHz FM
JAS-2 19 May 09:35:57 09:39:10 14° 82° (E) 09:42:13 435.800 - 435.900 CW/SSB, 435.910 FM
KITSAT 1 19 May 09:36:36 09:44:46 84° 240° (WSW) 09:52:53 435.175 FM
JAS-1B 19 May 09:36:59 09:43:22 83° 287° (WNW) 09:49:04 435.800 - 435.900 CW/SSB
Hamsat 19 May 09:37:37 09:40:59 22° 294° (WNW) 09:44:22 145.90 MHz
PCSat 19 May 10:16:57 10:21:52 34° 312° (NW) 10:26:49 145.825 MHz
ISS 19 May 10:23:12 10:26:32 57° 27° (NNE) 10:29:52 145.800 FM
HO-68 19 May 10:32:14 10:39:07 48° 100° (E) 10:45:58 435.675 MHz FM
OPAL 19 May 10:44:52 10:47:59 16° 93° (E) 10:51:03 ?
Sapphire 19 May 10:50:48 10:55:01 23° 318° (NW) 10:59:16 437.095 MHz 1200 baud AX-25 AFSK
SO-50 19 May 10:54:55 10:59:42 70° 307° (NW) 11:04:26 436.795 FM
JAS-2 19 May 11:18:18 11:25:34 80° 103° (ESE) 11:31:54 435.800 - 435.900 CW/SSB, 435.910 FM
Oscar 11 19 May 11:24:53 11:29:16 90° 282° (WNW) 11:33:39 145.825 FM, Beacon 2401.500 USB
JAS-1B 19 May 11:29:43 11:32:50 14° 310° (NW) 11:35:47 435.800 - 435.900 CW/SSB
Oscar 10/S400 19 May 11:31:03 13:10:22 16° 279° (W) 15:58:29 145.825 - 145.975 CW/USB, Beacon 145.810 USB
KITSAT 1 19 May 11:33:54 11:38:58 18° 259° (W) 11:44:03 435.175 FM
ISS 19 May 12:00:21 12:03:02 22° 224° (SW) 12:05:43 145.800 FM
HO-68 19 May 12:20:14 12:26:39 37° 299° (WNW) 12:33:03 435.675 MHz FM
OPAL 19 May 12:22:21 12:27:20 64° 290° (WNW) 12:32:15 ?
MaSat-1 19 May 12:31:38 12:35:15 55° 59° (ENE) 12:38:07 437.345 MHz
SO-50 19 May 12:38:27 12:41:11 15° 327° (NNW) 12:43:53 436.795 FM
UOSAT-12 19 May 12:39:30 12:43:30 32° 116° (ESE) 12:47:32 437.025 FM, 437.400 FM
Uribyol 2 19 May 12:59:07 13:02:04 16° 58° (ENE) 13:05:02 436.500 FM
Oscar 11 19 May 13:04:02 13:04:48 10° 301° (WNW) 13:05:34 145.825 FM, Beacon 2401.500 USB
JAS-2 19 May 13:04:24 13:09:40 22° 305° (NW) 13:14:33 435.800 - 435.900 CW/SSB, 435.910 FM
Oscar 19 19 May 13:08:55 13:12:42 21° 62° (ENE) 13:16:30 437.125 CW, 437.150 USB
Saudisat 1A 19 May 13:43:28 13:44:16 10° 26° (NNE) 13:45:04 436.775 MHz
AO-Echo 19 May 13:44:09 13:45:44 12° 58° (ENE) 13:47:18 ?
Oscar 16 19 May 13:46:04 13:51:03 49° 70° (ENE) 13:56:04 437.025 USB, Beacon 2401.1428
AO-27 19 May 13:46:42 13:51:26 38° 67° (ENE) 13:56:12 436.795 MHz FM
ITAMSAT 1 19 May 13:54:09 13:59:00 43° 69° (ENE) 14:03:53 435.822 SSB
UOSAT-12 19 May 14:19:29 14:23:37 35° 314° (NW) 14:27:49 437.025 FM, 437.400 FM
Uribyol 2 19 May 14:35:43 14:40:54 80° 256° (WSW) 14:46:08 436.500 FM
Oscar 19 19 May 14:46:32 14:51:38 57° 259° (W) 14:56:47 437.125 CW, 437.150 USB
Uosat F 19 May 15:08:59 15:13:25 33° 66° (ENE) 15:17:52 435.120 FM
TMSAT-1 19 May 15:11:39 15:15:28 21° 61° (ENE) 15:19:17 436.925 FM
AO-Echo 19 May 15:18:55 15:23:50 86° 76° (ENE) 15:28:38 ?
Saudisat 1A 19 May 15:20:51 15:25:13 42° 48° (NE) 15:29:29 436.775 MHz
AO-27 19 May 15:26:35 15:31:02 29° 265° (W) 15:35:32 436.795 MHz FM
Oscar 16 19 May 15:26:41 15:30:41 22° 267° (W) 15:34:42 437.025 USB, Beacon 2401.1428
AO-7 19 May 15:26:54 15:32:53 23° 49° (NE) 15:38:54 29.400 - 29.500 MHz
Gurwin Techsat 1B 19 May 15:29:51 15:34:47 41° 68° (ENE) 15:39:45 435.225 FM
ITAMSAT 1 19 May 15:34:26 15:38:40 26° 266° (W) 15:42:57 435.822 SSB
PCSat 19 May 15:37:59 15:39:57 12° 30° (NNE) 15:41:54 145.825 MHz
RS-15 19 May 16:09:32 16:18:34 26° 102° (ESE) 16:27:19 29.354 - 29.394 USB, Beacon 29.352 USB
Sapphire 19 May 16:09:53 16:13:23 17° 37° (NE) 16:16:52 437.095 MHz 1200 baud AX-25 AFSK
Uosat F 19 May 16:47:47 16:52:12 31° 264° (W) 16:56:40 435.120 FM
TMSAT-1 19 May 16:49:44 16:54:57 60° 259° (W) 17:00:13 436.925 FM
Saudisat 1A 19 May 17:00:59 17:04:43 25° 247° (WSW) 17:08:23 436.775 MHz
AO-Echo 19 May 17:02:06 17:03:14 11° 272° (W) 17:04:22 ?
Gurwin Techsat 1B 19 May 17:10:26 17:14:54 27° 266° (W) 17:19:24 435.225 FM
AO-7 19 May 17:16:18 17:24:35 86° 70° (ENE) 17:32:58 29.400 - 29.500 MHz
PCSat 19 May 17:19:33 17:24:49 47° 52° (NE) 17:30:01 145.825 MHz
SO-50 19 May 17:45:46 17:49:34 25° 41° (NE) 17:53:17 436.795 FM
Sapphire 19 May 17:52:17 17:57:45 78° 58° (ENE) 18:03:10 437.095 MHz 1200 baud AX-25 AFSK
RS-15 19 May 18:17:27 18:29:33 90° 123° (ESE) 18:41:08 29.354 - 29.394 USB, Beacon 29.352 USB
JAS-1B 19 May 18:32:54 18:39:39 25° 58° (ENE) 18:45:42 435.800 - 435.900 CW/SSB
Hamsat 19 May 18:56:53 19:00:38 32° 69° (ENE) 19:04:24 145.90 MHz
PCSat 19 May 19:03:26 19:08:00 28° 251° (WSW) 19:12:34 145.825 MHz
AO-7 19 May 19:12:30 19:18:21 21° 270° (W) 19:24:17 29.400 - 29.500 MHz
SO-50 19 May 19:26:02 19:30:26 50° 241° (WSW) 19:34:45 436.795 FM
UOSAT-12 19 May 19:29:14 19:30:24 11° 27° (NNE) 19:31:34 437.025 FM, 437.400 FM
STRAND 1 19 May 19:29:25 19:34:23 47° 99° (E) 19:39:19 ?
Sapphire 19 May 19:37:19 19:40:30 16° 256° (WSW) 19:43:40 437.095 MHz 1200 baud AX-25 AFSK
JAS-2 19 May 19:51:53 19:53:57 11° 46° (NE) 19:56:02 435.800 - 435.900 CW/SSB, 435.910 FM
SO-67 19 May 20:09:17 20:12:49 67° 76° (ENE) 20:16:24 435.3500 MHz FM
JAS-1B 19 May 20:20:00 20:29:29 88° 254° (WSW) 20:37:36 435.800 - 435.900 CW/SSB
RS-15 19 May 20:32:54 20:43:34 37° 330° (NNW) 20:53:51 29.354 - 29.394 USB, Beacon 29.352 USB
Hamsat 19 May 20:33:23 20:36:45 23° 266° (W) 20:40:10 145.90 MHz
HO-68 19 May 21:02:22 21:08:59 43° 63° (ENE) 21:15:36 435.675 MHz FM
UOSAT-12 19 May 21:07:20 21:11:45 44° 49° (NE) 21:16:10 437.025 FM, 437.400 FM
STRAND 1 19 May 21:09:14 21:13:18 24° 297° (WNW) 21:17:22 ?
JAS-2 19 May 21:29:51 21:37:05 47° 66° (ENE) 21:44:29 435.800 - 435.900 CW/SSB, 435.910 FM
OPAL 19 May 22:00:28 22:05:12 37° 65° (ENE) 22:09:56 ?
JAS-1B 19 May 22:14:14 22:20:41 21° 270° (W) 22:26:38 435.800 - 435.900 CW/SSB
Oscar 11 19 May 22:21:31 22:25:50 86° 76° (ENE) 22:30:12 145.825 FM, Beacon 2401.500 USB
UOSAT-12 19 May 22:47:59 22:51:42 24° 247° (WSW) 22:55:25 437.025 FM, 437.400 FM
HO-68 19 May 22:50:03 22:56:40 41° 262° (W) 23:03:21 435.675 MHz FM
RS-15 19 May 22:51:14 23:00:25 26° 4° (N) 23:09:16 29.354 - 29.394 USB, Beacon 29.352 USB
JAS-2 19 May 23:14:54 23:22:04 43° 265° (W) 23:29:29 435.800 - 435.900 CW/SSB, 435.910 FM
OPAL 19 May 23:39:33 23:44:07 31° 262° (W) 23:48:42 ?
KITSAT 1 20 May 00:06:02 00:13:51 57° 115° (ESE) 00:21:43 435.175 FM

Developed and maintained by Chris Peat, Heavens-Above GmbH. Please read the updated FAQ before sending e-mail. Imprint. DLR
